This demonstration page uses our WeatherBlox Daily Observations layout. Learn more.

Left ArrowRight Arrow

Hourly Observations for May 2, 2021

Temp ( °F °C ) Dew Point ( °F °C ) Humidity (%) Winds ( mph kmh ) Pressure ( in mb ) Visibility ( mi km ) Precip ( " mm )
12:15 am 00:15 Clear 50 10 41 5 71 71 Calm 29.92 1013 10 16.0934 0 0
12:35 am 00:35 Clear 50 10 37 3 62 62 SSW 5 7 29.91 1013 10 16.0934 0 0
12:55 am 00:55 Clear 46 8 39 4 76 76 WSW 6 9 29.92 1013 10 16.0934 0 0
1:15 am 01:15 Clear 52 11 37 3 58 58 WSW 3 6 29.91 1013 10 16.0934 0 0
1:35 am 01:35 Clear 50 10 37 3 62 62 W 7 11 29.92 1013 10 16.0934 0 0
1:55 am 01:55 Clear 52 11 37 3 58 58 Calm 29.91 1013 10 16.0934 0 0
2:15 am 02:15 Clear 54 12 36 2 51 51 SSW 3 6 29.9 1013 10 16.0934 0 0
2:35 am 02:35 Mostly Cloudy 52 11 37 3 58 58 SSW 8 13 29.89 1012 10 16.0934 0 0
2:55 am 02:55 Mostly Cloudy 52 11 37 3 58 58 SW 5 7 29.89 1012 10 16.0934 0 0
3:15 am 03:15 Partly Cloudy 50 10 37 3 62 62 SW 5 7 29.9 1012 10 16.0934 0 0
3:35 am 03:35 Clear 48 9 39 4 71 71 SW 5 7 29.89 1012 10 16.0934 0 0
3:55 am 03:55 Clear 46 8 39 4 76 76 SSW 6 9 29.89 1012 10 16.0934 0 0
4:15 am 04:15 Clear 46 8 39 4 76 76 SSW 6 9 29.89 1012 10 16.0934 0 0
4:35 am 04:35 Clear 46 8 39 4 76 76 SSW 3 6 29.89 1012 10 16.0934 0 0
4:55 am 04:55 Clear 46 8 39 4 76 76 SW 3 6 29.89 1012 10 16.0934 0 0
5:15 am 05:15 Clear 46 8 39 4 76 76 WSW 3 6 29.89 1012 10 16.0934 0 0
5:35 am 05:35 Clear 46 8 39 4 76 76 Calm 29.89 1012 10 16.0934 0 0
5:55 am 05:55 Clear 48 9 39 4 71 71 Calm 29.89 1012 10 16.0934 0 0
6:15 am 06:15 Partly Cloudy 50 10 39 4 67 67 Calm 29.89 1012 10 16.0934 0 0
6:35 am 06:35 Partly Cloudy 46 8 41 5 82 82 S 5 7 29.9 1012 10 16.0934 0 0
6:55 am 06:55 Partly Cloudy 48 9 41 5 76 76 W 3 6 29.91 1013 10 16.0934 0 0
7:15 am 07:15 Sunny 50 10 43 6 76 76 Calm 29.91 1013 10 16.0934 0 0
7:35 am 07:35 Sunny 52 11 41 5 67 67 S 3 6 29.9 1013 10 16.0934 0 0
7:55 am 07:55 Sunny 54 12 43 6 67 67 SW 3 6 29.9 1013 10 16.0934 0 0
8:15 am 08:15 Sunny 55 13 45 7 67 67 SSW 3 6 29.9 1013 10 16.0934 0 0
8:35 am 08:35 Sunny 59 15 45 7 59 59 Calm 29.9 1012 10 16.0934 0 0
8:55 am 08:55 Sunny 61 16 46 8 59 59 S 6 9 29.9 1012 10 16.0934 0 0
9:15 am 09:15 Sunny 63 17 46 8 56 56 S 3 6 29.89 1012 10 16.0934 0 0
9:35 am 09:35 Sunny 66 19 46 8 49 49 Calm 29.88 1012 10 16.0934 0 0
9:55 am 09:55 Sunny 70 21 48 9 46 46 SW 7 11 29.87 1012 10 16.0934 0 0
10:15 am 10:15 Sunny 70 21 48 9 46 46 SSW 3 6 29.87 1012 10 16.0934 0 0
10:35 am 10:35 Sunny 70 21 50 10 50 50 SSW 3 6 29.87 1012 10 16.0934 0 0
10:55 am 10:55 Sunny 72 22 52 11 50 50 SSW 6 9 29.86 1011 10 16.0934 0 0
11:15 am 11:15 Sunny 73 23 50 10 44 44 S 9 15 29.85 1011 10 16.0934 0 0
11:35 am 11:35 Sunny 77 25 50 10 39 39 SSW 8 13 29.84 1011 10 16.0934 0 0
11:55 am 11:55 Sunny 79 26 50 10 37 37 SSW 6 9 29.84 1011 10 16.0934 0 0
12:15 pm 12:15 Sunny 81 27 48 9 32 32 W 8 13 29.84 1011 10 16.0934 0 0
12:35 pm 12:35 Sunny 81 27 50 10 34 34 SSW 3 6 29.83 1010 10 16.0934 0 0
12:55 pm 12:55 Sunny 81 27 50 10 34 34 SW 9 15 29.83 1010 10 16.0934 0 0
1:15 pm 13:15 Sunny 82 28 52 11 35 35 SW 9 15 29.83 1010 10 16.0934 0 0
1:35 pm 13:35 Sunny 82 28 50 10 32 32 SSW 9 15 29.82 1010 10 16.0934 0 0
1:55 pm 13:55 Sunny 84 29 50 10 31 31 SW 10 17 29.81 1009 10 16.0934 0 0
2:15 pm 14:15 Sunny 86 30 50 10 29 29 SSW 13 20 29.81 1009 10 16.0934 0 0
2:35 pm 14:35 Sunny 86 30 52 11 31 31 S 10 17 29.8 1009 10 16.0934 0 0
2:55 pm 14:55 Sunny 86 30 50 10 29 29 SW 13 20 29.8 1009 10 16.0934 0 0
3:15 pm 15:15 Sunny 86 30 52 11 31 31 S 12 19 29.79 1009 10 16.0934 0 0
3:35 pm 15:35 Sunny 86 30 52 11 31 31 SSW 13 20 29.78 1008 10 16.0934 0 0
3:55 pm 15:55 Sunny 86 30 50 10 29 29 SSW 13 20 29.78 1008 10 16.0934 0 0
4:15 pm 16:15 Sunny 86 30 52 11 31 31 SSW 14 22 29.78 1008 10 16.0934 0 0
4:35 pm 16:35 Sunny 84 29 50 10 31 31 S 14 22 29.77 1008 10 16.0934 0 0
4:55 pm 16:55 Sunny 84 29 50 10 31 31 SSW 12 19 29.77 1008 10 16.0934 0 0
5:15 pm 17:15 Sunny 82 28 50 10 32 32 SW 9 15 29.77 1008 10 16.0934 0 0
5:35 pm 17:35 Sunny 82 28 52 11 35 35 SSW 13 20 29.77 1008 10 16.0934 0 0
5:55 pm 17:55 Sunny 82 28 50 10 32 32 SSW 9 15 29.76 1008 10 16.0934 0 0
6:15 pm 18:15 Sunny 82 28 52 11 35 35 SW 9 15 29.76 1008 10 16.0934 0 0
6:35 pm 18:35 Sunny 81 27 50 10 34 34 SSW 9 15 29.76 1008 10 16.0934 0 0
6:55 pm 18:55 Sunny 79 26 50 10 37 37 S 6 9 29.76 1008 10 16.0934 0 0
7:15 pm 19:15 Sunny 79 26 50 10 37 37 SSW 8 13 29.77 1008 10 16.0934 0 0
7:35 pm 19:35 Sunny 77 25 50 10 39 39 SSW 6 9 29.77 1008 10 16.0934 0 0
7:55 pm 19:55 Sunny 77 25 50 10 39 39 S 5 7 29.77 1008 10 16.0934 0 0
8:15 pm 20:15 Clear 77 25 50 10 39 39 S 6 9 29.78 1009 10 16.0934 0 0
8:35 pm 20:35 Clear 75 24 50 10 41 41 SSW 6 9 29.79 1009 10 16.0934 0 0
8:55 pm 20:55 Clear 73 23 50 10 44 44 SSW 5 7 29.79 1009 10 16.0934 0 0
9:15 pm 21:15 Clear 73 23 50 10 44 44 SSW 6 9 29.8 1009 10 16.0934 0 0
9:35 pm 21:35 Clear 73 23 50 10 44 44 S 6 9 29.8 1009 10 16.0934 0 0
9:55 pm 21:55 Clear 72 22 50 10 47 47 SSW 6 9 29.81 1009 10 16.0934 0 0
10:15 pm 22:15 Clear 72 22 50 10 47 47 SSW 7 11 29.81 1009 10 16.0934 0 0
10:35 pm 22:35 Clear 72 22 50 10 47 47 SSW 6 9 29.81 1009 10 16.0934 0 0
10:55 pm 22:55 Clear 70 21 50 10 50 50 SSW 6 9 29.81 1009 10 16.0934 0 0
11:15 pm 23:15 Clear 70 21 50 10 50 50 SSW 5 7 29.81 1009 10 16.0934 0 0
11:35 pm 23:35 Clear 70 21 50 10 50 50 SSW 6 9 29.81 1009 10 16.0934 0 0
11:55 pm 23:55 Clear 70 21 50 10 50 50 SSW 3 6 29.82 1010 10 16.0934 0 0

Powered by AerisWeather